Regional Weather Roundup
Issued by NWS

Home | Current Version | Previous Version | Text Only | Print | Product List | Glossary On
Versions: 1 2 3 4 5 6 7 8 9 10 11 12 13 14 15 16 17 18 19 20 21 22 23 24 25 26 27 28 29 30 31 32 33 34 35 36 37 38 39 40 41 42 43 44 45 46 47 48 49 50
000
ASUS45 KBOU 252210
RWRCO

WEATHER ROUNDUP FOR COLORADO
NATIONAL WEATHER SERVICE DENVER/BOULDER CO
400 PM MDT WED APR 25 2018

NOTE: "FAIR" INDICATES FEW OR NO CLOUDS BELOW 12000 FEET WITH NO
SIGNIFICANT WEATHER AND/OR OBSTRUCTIONS TO VISIBILITY.

COZ001>005-013-030-031-252300-
...NORTHWEST COLORADO...

CITY           SKY/WX    TMP DP  RH WIND       PRES   REMARKS
CRAIG          FAIR      64  23  21 W5        30.17F
HAYDEN         FAIR      60  20  21 VRB3      30.20F
MEEKER         FAIR      66  13  12 W8        30.17F
RANGELY        FAIR      64  20  18 W10       30.17F
RABBIT EARS PA FAIR      45  10  24 SW6       30.34F
STEAMBOAT SPGS FAIR      60  15  17 NW8       30.19F
WALDEN         FAIR      59  -8   6 W9        30.21F
$$

COZ006>008-011-252300-
...WEST CENTRAL VALLEYS...

CITY           SKY/WX    TMP DP  RH WIND       PRES   REMARKS
GRAND JUNCTION FAIR      68   9  10 W8        30.13F
MONTROSE       FAIR      67   3   8 NW8       30.16F
EAGLE          FAIR      66   0   7 CALM      30.17F
RIFLE          FAIR      68   8   9 NE3       30.13F
DELTA          FAIR      75   1   5 S3        30.12F
NUCLA          FAIR      72   1   6 SW10      30.19F
$$

COZ017>023-064>068-252300-
...SOUTHWEST COLORADO...

CITY           SKY/WX    TMP DP  RH WIND       PRES   REMARKS
DURANGO        FAIR      69  10  10 W9        30.15F
CORTEZ         FAIR      71 -16   3 VRB3      30.16F
PAGOSA SPRINGS FAIR      67 -10   4 S7        30.20F
TELLURIDE      FAIR      60   8  13 W16       30.29F
WOLF CREEK PAS FAIR      45   5  19 S14G20    30.46F
$$

COZ009-010-012-014-032>034-037-058>063-252300-
...CENTRAL COLORADO...

CITY           SKY/WX    TMP DP  RH WIND       PRES   REMARKS
ASPEN          FAIR      63   1   8 VRB7G20   30.19F
BUENA VISTA    FAIR      61   3   9 CALM      30.19F
COPPER MTN     NOT AVBL
BERTHOUD PASS  FAIR      32  23  69 NW14      30.41S WCI  22
COTTONWOOD PAS FAIR      61  10  13 SE10G18   30.29F
GUNNISON       FAIR      64  -9   5 MISG        N/A
GRANBY         FAIR      58   0   9 SW7       30.23F
KREMMLING      FAIR      66   3   8 SW3       30.20F
LEADVILLE      FAIR      52   5  15 VRB7      30.27F
MONARCH PASS   FAIR      45  -4  13 W24G30    30.50F
SALIDA         FAIR      67   0   7 CALM      30.24F
SUNLIGHT       FAIR      45   9  23 W8        30.39F
WILKERSON PASS FAIR      45   9  23 CALM      30.39F
$$

COZ069>075-252300-
...SAN LUIS VALLEY/SANGRE DE CRISTO MOUNTAINS...

CITY           SKY/WX    TMP DP  RH WIND       PRES   REMARKS
ALAMOSA        FAIR      63  -3   7 SE6       30.20F
DEL NORTE      FAIR      62  -6   6 S10       30.21F
LA VETA PASS   FAIR      48  21  34 N7        30.44F
SAGUACHE       NOT AVBL
$$

COZ035-036-038>040-252300-
...NORTHERN COLORADO FRONT RANGE...

CITY           SKY/WX    TMP DP  RH WIND       PRES   REMARKS
DENVER INTL AP FAIR      64  14  14 VRB3      30.11F
AURORA         SUNNY     65   2   8 CALM      30.12F
FRONT RANGE AP SUNNY     64  12  13 S8        30.13F
ERIE MUNI ARPT FAIR      65  12  12 E3        30.15F
BOULDER MUN AP FAIR      64  21  19 NE7       30.09F
CENTENNIAL     FAIR      62  15  16 SW3       30.12F
BROOMFIELD     SUNNY     64  19  17 SE9       30.13F
FORT COLLINS   FAIR      65  27  23 S10       30.09F
LONGMONT       FAIR      67  25  20 SE6       30.11F
$$

COZ041-046-047-076>085-087-088-252300-
...PIKES PEAK/PALMER DIVIDE AND SOUTHERN FOOTHILLS...

CITY           SKY/WX    TMP DP  RH WIND       PRES   REMARKS
COLO. SPRINGS  FAIR      62  24  23 VRB3      30.17F
A. F. ACADEMY  FAIR      62  24  24 S8        30.16F
SCHRIEVER AFB  NOT AVBL
CHEYENNE MTN   FAIR      56  30  36 SE10G21   30.14F
ELLICOTT         N/A    N/A N/A N/A CALM      30.16F
FALCON         FAIR      64  15  15 W8        30.20F
FORT CARSON    SUNNY     63  30  29 SE8G18    30.15F
LIMON          FAIR      61  17  18 CALM      30.15F
MONUMENT HILL  FAIR      57  12  17 N3        30.20F
CANON CITY     SUNNY     68  28  22 E9G17     30.12F
WALSENBURG     NOT AVBL
TRINIDAD       FAIR      64   9  11 VRB3      30.18F
$$

COZ042>045-048>051-090-091-252300-
...NORTHEAST COLORADO...

CITY           SKY/WX    TMP DP  RH WIND       PRES   REMARKS
GREELEY ARPT   FAIR      66  24  20 VRB6      30.09F
AKRON          FAIR      60  27  28 SW3       30.12F
BURLINGTON     FAIR      59  32  36 NW5       30.15
WRAY           FAIR      63  28  27 CALM      30.13F
YUMA           FAIR      59  18  20 NW3       30.11F
STERLING       NOT AVBL
HOLYOKE        FAIR      64  30  27 SW3       30.11F
FORT MORGAN    FAIR      65  13  13 SW5       30.11F
$$

COZ086-089-092>099-252300-
...SOUTHEAST COLORADO...

CITY           SKY/WX    TMP DP  RH WIND       PRES   REMARKS
PUEBLO         FAIR      65  27  23 VRB5      30.13F
LA JUNTA       FAIR      62  33  33 VRB5      30.15F
LAMAR          FAIR      64  30  27 NE8       30.12F
SPRINGFIELD      N/A     58  30  34 N13G20    30.16F
$$



USA.gov is the U.S. government's official web portal to all federal, state and local government web resources and services.